Change the Weather History Date:

Wednesday, July 24, 2013

  Actual Average (KLNS) Record (KLNS)
Temperature  
Mean Temperature 71 °F -  
Max Temperature 78 °F 84 °F 101 °F (1991)
Min Temperature 64 °F 63 °F 48 °F (1985)
Cooling Degree Days 6    
Growing Degree Days 21 (Base 50)    
Moisture  
Dew Point 63 °F    
Average Humidity 71    
Maximum Humidity 88    
Minimum Humidity 53    
Precipitation  
Precipitation 0.01 in - - ()
Sea Level Pressure  
Sea Level Pressure 29.82 in    
Wind  
Wind Speed 7 mph (NNW)    
Max Wind Speed 13 mph    
Max Gust Speed 17 mph    
Visibility 9 miles    
Events      
Averages and records for this station are not official NWS values.
T = Trace of Precipitation, MM = Missing Value Source: NWS Daily Summary

Daily Weather History Graph

Daily Weather History Graph

Search for Another Location

Airport or City:

Trip Planner

Search our weather history database for the weather conditions in past years. The results will help you decide how hot, cold, wet, or windy it might be!

Date:

Astronomy

Jul. 24, 2013 Rise Set
Actual Time 5:54 AM EDT 8:24 PM EDT
Civil Twilight 5:23 AM EDT 8:55 PM EDT
Nautical Twilight 4:45 AM EDT 9:33 PM EDT
Astronomical Twilight 4:02 AM EDT 10:16 PM EDT
Moon 9:29 PM EDT (7/24) 8:12 AM EDT (7/24)
Length of Visible Light 15h 31m
Length of Day
14h 29m
Waning Gibbous, 95% of the Moon is Illuminated
Jul 24
Waning Gibbous
Jul 29
Last Quarter
Aug 6
New
Aug 14
First Quarter
Aug 20
Full

Hourly Weather History & Observations

Time (EDT) Temp. Dew Point Humidity Pressure Visibility Wind Dir Wind Speed Gust Speed Precip Events Conditions
12:15 AM 71.6 °F 66.2 °F 83% 29.72 in 10.0 mi West 4.6 mph - N/A   Clear
12:35 AM 73.4 °F 66.2 °F 78% 29.73 in 10.0 mi West 5.8 mph - N/A   Clear
12:55 AM 71.6 °F 66.2 °F 83% 29.73 in 10.0 mi West 6.9 mph - N/A   Clear
1:15 AM 71.6 °F 66.2 °F 83% 29.73 in 10.0 mi West 4.6 mph - N/A   Clear
1:35 AM 73.4 °F 66.2 °F 78% 29.73 in 10.0 mi West 4.6 mph - N/A   Clear
1:55 AM 71.6 °F 66.2 °F 83% 29.72 in 10.0 mi West 3.5 mph - N/A   Clear
2:15 AM 69.8 °F 66.2 °F 88% 29.72 in 8.0 mi Calm Calm - N/A   Clear
2:35 AM 69.8 °F 66.2 °F 88% 29.71 in 7.0 mi WNW 3.5 mph - N/A   Clear
2:55 AM 69.8 °F 66.2 °F 88% 29.71 in 7.0 mi WNW 5.8 mph - N/A   Clear
3:15 AM 69.8 °F 66.2 °F 88% 29.70 in 7.0 mi NW 4.6 mph - N/A   Clear
3:35 AM 73.4 °F 66.2 °F 78% 29.70 in 8.0 mi NNW 5.8 mph - N/A   Clear
3:55 AM 71.6 °F 66.2 °F 83% 29.71 in 7.0 mi West 4.6 mph - N/A   Clear
4:15 AM 71.6 °F 66.2 °F 83% 29.71 in 7.0 mi Calm Calm - N/A   Clear
4:35 AM 69.8 °F 66.2 °F 88% 29.72 in 5.0 mi WNW 4.6 mph - N/A   Clear
4:55 AM 69.8 °F 66.2 °F 88% 29.71 in 5.0 mi NW 4.6 mph - N/A   Clear
5:15 AM 69.8 °F 64.4 °F 83% 29.72 in 7.0 mi NW 6.9 mph - N/A   Clear
5:35 AM 71.6 °F 64.4 °F 78% 29.72 in 9.0 mi NW 6.9 mph - N/A   Clear
5:55 AM 71.6 °F 64.4 °F 78% 29.73 in 9.0 mi NW 9.2 mph - N/A   Clear
6:15 AM 71.6 °F 64.4 °F 78% 29.73 in 8.0 mi NW 5.8 mph - N/A   Clear
6:35 AM 71.6 °F 64.4 °F 78% 29.74 in 10.0 mi NW 8.1 mph - N/A   Clear
6:55 AM 73.4 °F 64.4 °F 73% 29.74 in 10.0 mi NW 8.1 mph - N/A   Clear
7:15 AM 73.4 °F 64.4 °F 73% 29.75 in 10.0 mi NW 9.2 mph - N/A   Clear
7:35 AM 73.4 °F 64.4 °F 73% 29.75 in 10.0 mi NW 10.4 mph - N/A   Clear
7:55 AM 73.4 °F 64.4 °F 73% 29.76 in 10.0 mi NW 9.2 mph - N/A   Clear
8:15 AM 73.4 °F 64.4 °F 73% 29.77 in 10.0 mi NW 10.4 mph - N/A   Clear
8:35 AM 73.4 °F 66.2 °F 78% 29.78 in 10.0 mi WNW 10.4 mph - N/A   Clear
8:55 AM 73.4 °F 66.2 °F 78% 29.78 in 9.0 mi NW 10.4 mph - N/A   Clear
9:15 AM 73.4 °F 66.2 °F 78% 29.79 in 8.0 mi NW 9.2 mph - N/A   Partly Cloudy
9:35 AM 73.4 °F 66.2 °F 78% 29.80 in 9.0 mi NW 11.5 mph - N/A   Partly Cloudy
9:55 AM 75.2 °F 66.2 °F 73% 29.80 in 10.0 mi NNW 8.1 mph - N/A   Clear
10:15 AM 75.2 °F 66.2 °F 73% 29.81 in 10.0 mi NW 11.5 mph 17.3 mph N/A   Clear
10:35 AM 75.2 °F 66.2 °F 73% 29.81 in 10.0 mi NNW 8.1 mph - N/A   Partly Cloudy
10:55 AM 75.2 °F 66.2 °F 73% 29.82 in 10.0 mi NNW 11.5 mph - N/A   Scattered Clouds
11:15 AM 73.4 °F 66.2 °F 78% 29.82 in 10.0 mi NNW 10.4 mph - N/A   Mostly Cloudy
11:35 AM 75.2 °F 66.2 °F 73% 29.83 in 10.0 mi NNW 8.1 mph - N/A   Mostly Cloudy
11:55 AM 75.2 °F 66.2 °F 73% 29.84 in 10.0 mi NNW 8.1 mph - N/A   Mostly Cloudy
12:15 PM 75.2 °F 66.2 °F 73% 29.85 in 10.0 mi NW 5.8 mph - N/A   Mostly Cloudy
12:35 PM 75.2 °F 66.2 °F 73% 29.85 in 10.0 mi NNW 10.4 mph - N/A   Mostly Cloudy
12:55 PM 73.4 °F 64.4 °F 73% 29.85 in 10.0 mi NNW 10.4 mph - N/A   Overcast
1:15 PM 73.4 °F 66.2 °F 78% 29.85 in 10.0 mi North 12.7 mph 16.1 mph N/A   Overcast
1:35 PM 73.4 °F 66.2 °F 78% 29.85 in 10.0 mi North 8.1 mph - N/A   Overcast
1:55 PM 75.2 °F 66.2 °F 73% 29.85 in 10.0 mi North - - N/A   Mostly Cloudy
2:15 PM 75.2 °F 64.4 °F 69% 29.86 in 10.0 mi NNW 6.9 mph - N/A   Mostly Cloudy
2:35 PM 75.2 °F 64.4 °F 69% 29.86 in - NNW 6.9 mph - N/A   Mostly Cloudy
2:55 PM 75.2 °F 64.4 °F 69% 29.86 in 10.0 mi NNW 8.1 mph - 0.01 in   Scattered Clouds
3:55 PM 75.2 °F 62.6 °F 65% 29.86 in 10.0 mi NNW 9.2 mph 16.1 mph N/A   Mostly Cloudy
4:15 PM 77.0 °F 62.6 °F 61% 29.86 in 10.0 mi NNW 8.1 mph - N/A   Scattered Clouds
4:35 PM 77.0 °F 60.8 °F 57% 29.86 in 10.0 mi NNW 9.2 mph - N/A   Clear
4:55 PM 77.0 °F 60.8 °F 57% 29.86 in 10.0 mi NNW 9.2 mph - N/A   Clear
5:15 PM 77.0 °F 60.8 °F 57% 29.85 in 10.0 mi North 8.1 mph - N/A   Clear
5:35 PM 78.8 °F 60.8 °F 54% 29.86 in 10.0 mi North 8.1 mph - N/A   Partly Cloudy
5:55 PM 77.0 °F 60.8 °F 57% 29.86 in 10.0 mi NW 6.9 mph - N/A   Clear
6:15 PM 75.2 °F 59.0 °F 57% 29.86 in 10.0 mi NNW 9.2 mph - N/A   Clear
6:35 PM 75.2 °F 57.2 °F 53% 29.86 in 10.0 mi North 6.9 mph - N/A   Clear
6:55 PM 75.2 °F 57.2 °F 53% 29.87 in 10.0 mi NNW 6.9 mph - N/A   Clear
7:15 PM 75.2 °F 57.2 °F 53% 29.88 in 10.0 mi NNW 6.9 mph - N/A   Clear
7:35 PM 73.4 °F 57.2 °F 57% 29.88 in 10.0 mi NNW 6.9 mph - N/A   Clear
7:55 PM 73.4 °F 57.2 °F 57% 29.89 in 10.0 mi NNW 5.8 mph - N/A   Clear
8:15 PM 71.6 °F 57.2 °F 60% 29.90 in 10.0 mi NNW 6.9 mph - N/A   Clear
8:35 PM 71.6 °F 57.2 °F 60% 29.91 in 10.0 mi NNW 6.9 mph - N/A   Clear
8:55 PM 69.8 °F 57.2 °F 64% 29.91 in 10.0 mi North 5.8 mph - N/A   Clear
9:15 PM 69.8 °F 57.2 °F 64% 29.93 in 10.0 mi North 10.4 mph - N/A   Clear
9:35 PM 69.8 °F 55.4 °F 60% 29.94 in 10.0 mi North 8.1 mph - N/A   Clear
9:55 PM 68.0 °F 53.6 °F 60% 29.96 in 10.0 mi North 11.5 mph - N/A   Clear
10:15 PM 66.2 °F 53.6 °F 64% 29.96 in 10.0 mi North 9.2 mph - N/A   Clear
10:35 PM 66.2 °F 53.6 °F 64% 29.97 in 10.0 mi North 10.4 mph 16.1 mph N/A   Clear
10:55 PM 66.2 °F 51.8 °F 60% 29.97 in 10.0 mi North 10.4 mph 16.1 mph N/A   Scattered Clouds
11:15 PM 64.4 °F 51.8 °F 64% 29.97 in 10.0 mi North 9.2 mph - N/A   Partly Cloudy
11:35 PM 64.4 °F 51.8 °F 64% 29.97 in 10.0 mi North 9.2 mph - N/A   Clear
11:55 PM 64.4 °F 51.8 °F 64% 29.98 in 10.0 mi North 10.4 mph 16.1 mph N/A   Clear